Powrót do katalogu

STARLINK-1036

AktywnyŁącznośćVLEO
NORAD 44741·PAYLOAD·🇺🇸 United States

Wystrzelony Nov 11, 2019 z Cape Canaveral Space Force Station

Loading…

Następne Przeloty (najbliższe 24 godziny)

TLE

ŚwieżeSource: CelesTrak SupGP

Epoka: Sep 14, 2026, 21:48 UTC

1 44741C 19074AE  26257.90881944  .00106810  00000+0  34836-3 0  2575
2 44741  53.0364 330.1276 0005680 347.9687 133.7403 15.89852142    15

Śledź STARLINK-1036 w czasie rzeczywistym z AllMySat

Download on the App Store